Flag for Morocco Weather past 2 weeks in Tangier, Morocco

Now
61 °F

Partly sunny.


Feels Like: 61 °F
Forecast: 55 / 62 °F
Wind: 33 mph from East

Location: Tanger Aerodrome

Current Time: Mar 5, 2015 at 10:27:32 AM

Latest Report: Mar 5, 2015 at 10:00 AM


Visibility: N/A

Pressure: 30.27 "Hg

Humidity: 68%

Dew point: 50 °F

Location of TangierLocation

Historic Weather in Tangier — Graph

°F

Tangier temperature yesterday

Maximum temperature yesterday: 64 °F (at 5:00 PM)
Minimum temperature yesterday: 48 °F (at 6:30 AM)
Average temperature yesterday: 58 °F

Past Weeks' High & Low Weather Summary

 TemperatureHumidityPressure
High64 °F (Mar 4, 5:00 PM)100% (Mar 3, 4:00 AM)30.51 "Hg (Mar 3, 4:00 AM)
Low41 °F (Feb 25, 7:30 AM)52% (Feb 20, 1:00 PM)29.89 "Hg (Feb 21, 4:00 PM)
Average55 °F79%30.26 "Hg
* Reported Feb 18 9:00 AM — Mar 5 9:00 AM, Tangier, Weather by CustomWeather, © 2015

Note: Actual official high and low records may vary slightly from our data, if they occured in-between our weather recording intervals... More about our weather records

Advertising

Tangier weather history for previous 24 hours

 ConditionsComfort  
Time TempWeatherWind HumidityBarometerVisibility
9:00 AM
Thu, Mar 5
61 °FPartly sunny.32 mph63%30.24 "HgN/A
8:30 AM59 °FPartly sunny.28 mph68%30.24 "HgN/A
8:00 AM59 °FPartly sunny.32 mph68%30.24 "HgN/A
7:30 AM57 °FBroken clouds.29 mph72%30.24 "HgN/A
7:00 AM59 °FBroken clouds.29 mph68%30.24 "HgN/A
6:30 AM59 °FScattered clouds.30 mph72%30.24 "HgN/A
6:00 AM59 °FScattered clouds.26 mph77%30.24 "HgN/A
5:30 AM59 °FPassing clouds.29 mph77%30.21 "HgN/A
5:00 AM59 °FPassing clouds.29 mph77%30.21 "HgN/A
4:30 AM59 °FCool.24 mph82%30.21 "HgN/A
3:30 AM59 °FClear.24 mph77%30.21 "Hg10 mi
3:00 AM59 °FClear.29 mph82%30.24 "Hg10 mi
2:00 AM59 °FClear.24 mph82%30.24 "Hg10 mi
1:30 AM59 °FClear.23 mph82%30.27 "Hg3 mi
1:00 AM59 °FClear.24 mph82%30.27 "HgN/A
12:30 AM59 °FClear.18 mph88%30.27 "HgN/A
12:00 AM59 °FClear.15 mph82%30.27 "Hg5 mi
11:30 PM
Wed, Mar 4
59 °FClear.12 mph82%30.27 "Hg5 mi
11:00 PM59 °FClear.15 mph88%30.27 "Hg5 mi
10:30 PM59 °FClear.13 mph88%30.24 "Hg5 mi
9:30 PM55 °FClear.3 mph88%30.24 "Hg3 mi
9:00 PM54 °FClear.3 mph88%30.24 "Hg4 mi
8:30 PM54 °FClear.3 mph94%30.24 "Hg4 mi
8:00 PM55 °FClear.2 mph88%30.24 "Hg4 mi
7:30 PM55 °FClear.2 mph82%30.24 "Hg4 mi
7:00 PM57 °FClear.No wind88%30.24 "Hg4 mi
6:30 PM59 °FClear.3 mph82%30.24 "Hg4 mi
6:00 PM61 °FClear.3 mph83%30.24 "Hg4 mi
5:30 PM63 °FPassing clouds.5 mph77%30.24 "HgN/A
5:00 PM64 °FPassing clouds.3 mph73%30.24 "HgN/A
4:30 PM63 °FSunny.2 mph83%30.24 "Hg10 mi
4:00 PM61 °FSunny.7 mph83%30.27 "Hg10 mi
3:30 PM63 °FSunny.7 mph77%30.27 "Hg10 mi
3:00 PM63 °FPassing clouds.8 mph77%30.27 "HgN/A
2:30 PM63 °FPassing clouds.7 mph83%30.27 "HgN/A
2:00 PM63 °FSunny.9 mph77%30.27 "Hg10 mi
1:30 PM63 °FPassing clouds.8 mph83%30.27 "HgN/A
1:00 PM63 °FPartly sunny.8 mph77%30.30 "Hg5 mi
12:30 PM63 °FBroken clouds.6 mph77%30.30 "Hg5 mi
12:00 PM63 °FScattered clouds.6 mph77%30.30 "Hg5 mi
11:30 AM63 °FScattered clouds.6 mph77%30.30 "Hg5 mi
11:00 AM61 °FScattered clouds.5 mph83%30.33 "Hg5 mi
10:30 AM61 °FScattered clouds.5 mph83%30.33 "Hg5 mi
10:00 AM61 °FScattered clouds.3 mph88%30.33 "Hg4 mi
Weather by CustomWeather, © 2015

See weather overviewHow to use our weather pages